Wind_Speed
12 13 14 16 17 17 18 18 18 19 19 20 21 23 24 25 25 26 26 27 28 29 28 24 18 14 8 2 2 2 4 8 9 8 9 12 12 11 12 13 14 13 13 12 10 10 8 7 4 5 8 7 1 1 3 6 6 2 1 1 4 2 3 4 4 5 4 4 6 9 12 7 5 7 5 2 4 11 16 18 20 23 22 17 13 13 14 16
12 12 14 15 16 17 17 17 18 18 19 20 21 22 23 23 24 24 25 26 28 28 27 23 17 13 8 2 2 1 4 8 8 9 12 12 11 11 11 11 13 12 12 12 11 10 7 4 3 6 8 6 3 0 0 2 4 2 1 2 2 2 2 5 6 6 7 7 8 10 11 7 7 6 6 3 8 13 12 12 18 21 19 16 14 13 15 17
12 12 13 14 15 16 16 16 17 18 18 19 20 21 22 22 23 23 24 26 27 28 26 22 16 12 7 1 2 2 3 5 6 10 12 10 10 9 10 10 11 11 11 11 11 10 8 6 6 7 9 6 3 1 0 2 3 1 1 1 0 3 1 3 7 8 9 10 8 8 9 6 9 6 5 3 10 12 9 10 14 17 17 16 16 15 17 19
12 12 13 14 15 15 16 15 16 17 18 18 19 20 21 21 22 22 23 25 28 28 27 22 16 11 7 2 4 3 0 1 4 8 9 8 8 8 10 11 11 11 11 11 12 12 10 8 6 5 7 6 5 3 1 2 2 2 1 1 1 3 1 0 6 8 9 10 7 7 6 5 6 5 7 7 8 6 9 14 14 15 14 14 15 16 18 20
12 12 13 14 14 15 15 15 15 16 17 17 18 19 19 20 21 22 23 25 28 29 27 22 16 11 7 3 4 4 1 1 3 6 7 6 6 8 10 11 12 12 11 12 12 11 9 7 7 5 5 5 4 3 3 3 2 3 1 5 5 4 2 1 5 7 7 7 6 6 4 4 3 6 12 11 7 5 11 16 14 14 13 13 15 16 18 21
12 12 13 14 14 14 14 15 14 14 16 17 17 18 18 19 20 21 22 24 27 29 28 22 16 10 7 5 4 2 1 1 3 4 4 5 5 7 10 10 12 11 11 11 10 8 6 6 7 4 3 4 2 1 4 4 1 2 1 7 7 4 2 1 6 5 6 5 5 5 4 3 1 10 12 13 12 12 16 14 13 14 13 14 14 16 19 21
12 12 13 13 14 14 14 14 14 13 15 16 17 18 18 18 20 21 23 24 27 29 28 22 15 8 5 7 7 4 3 1 2 3 3 4 4 7 9 10 10 10 10 10 9 7 6 7 8 7 5 4 1 1 2 1 1 2 1 5 5 2 3 4 6 4 3 3 5 6 5 5 5 9 11 15 17 17 16 12 13 14 13 15 16 17 19 20
12 12 13 13 14 14 14 13 14 13 13 15 16 17 18 18 19 21 23 25 26 28 28 22 13 6 2 4 4 3 2 2 2 3 3 3 4 6 7 9 10 10 10 10 10 9 7 7 8 7 5 1 2 2 2 4 4 5 1 3 3 2 4 5 6 3 1 0 6 8 5 4 7 11 12 16 18 17 15 13 14 14 14 16 16 17 18 19
12 12 13 13 14 14 14 14 13 13 13 14 16 16 17 18 19 20 22 25 25 27 27 21 13 6 3 1 3 2 1 3 2 2 2 3 4 5 7 9 10 10 9 8 9 9 8 6 6 6 5 3 3 3 3 3 3 3 1 1 3 4 6 6 6 4 2 1 7 7 1 6 13 13 11 16 19 17 16 15 15 14 15 16 17 16 17 18
12 12 13 13 14 15 15 15 13 14 14 14 15 17 17 18 19 20 22 24 24 25 27 21 13 7 4 3 5 4 3 4 2 2 3 3 5 6 7 8 10 10 8 8 9 9 8 6 6 5 4 4 4 5 3 1 2 2 2 3 6 7 8 8 8 7 5 2 7 6 2 8 18 9 6 17 20 17 17 16 14 15 16 15 16 16 16 17
12 12 13 12 14 14 15 15 14 15 14 15 15 17 18 18 20 21 22 24 21 24 27 19 11 6 1 3 6 4 4 4 1 2 3 4 6 7 7 7 9 10 8 7 9 8 8 7 5 4 2 3 4 5 6 4 4 3 4 5 8 10 8 10 10 8 7 3 7 6 5 6 14 6 8 21 19 17 18 16 15 15 16 15 15 15 15 16
12 13 13 12 13 13 15 16 15 16 15 16 16 17 19 19 21 21 22 23 20 24 26 16 8 3 1 2 4 4 4 3 1 2 3 5 7 8 8 8 9 10 8 7 8 8 9 8 5 2 3 6 6 3 4 6 7 5 5 3 5 7 7 10 11 9 8 2 5 7 5 4 8 6 17 25 20 19 19 16 16 15 16 14 13 13 14 16
12 13 13 13 13 13 15 15 16 17 16 17 17 18 19 20 22 21 22 21 19 25 25 13 5 3 2 4 3 4 5 3 1 2 4 7 8 9 8 9 10 10 9 8 7 7 9 10 5 4 5 6 5 3 3 5 6 5 4 2 4 4 5 10 11 10 9 3 3 5 3 4 7 12 23 25 21 20 18 16 16 15 15 13 12 12 12 14
12 12 13 13 13 13 14 15 16 17 18 18 18 19 20 21 22 22 22 19 18 24 22 10 2 1 3 4 4 4 5 3 3 4 5 8 10 11 10 10 10 9 10 8 7 6 8 10 6 5 7 7 5 6 5 2 3 3 1 2 4 3 3 9 10 9 7 3 1 1 2 4 2 15 24 23 19 17 17 16 15 14 13 11 11 11 11 12
12 12 13 14 14 13 14 15 16 17 19 19 19 20 21 23 23 22 21 17 17 23 18 7 4 2 4 4 4 5 6 5 5 6 7 9 11 13 12 11 10 9 10 9 7 6 8 10 6 4 6 5 4 5 4 3 3 2 0 3 3 1 2 7 7 7 5 2 5 3 3 3 3 13 21 20 17 17 18 16 14 13 12 11 10 10 11 11
12 13 13 14 14 14 14 15 16 18 19 20 22 21 21 24 22 21 19 14 16 21 14 4 4 5 5 3 4 5 7 7 7 7 7 10 12 13 14 12 10 11 13 11 7 7 9 9 6 5 5 3 3 4 4 2 2 2 2 3 2 2 0 3 3 6 3 1 4 3 2 3 2 12 18 18 17 19 19 16 15 13 12 10 9 9 11 11
13 13 13 14 14 14 15 15 17 19 20 22 23 22 24 23 20 20 14 9 15 19 10 2 3 7 5 5 4 4 7 8 8 8 7 10 12 14 16 13 11 13 15 11 7 7 7 6 4 4 3 4 3 2 3 4 2 1 0 3 3 3 3 1 2 5 6 2 3 2 3 5 3 12 16 17 18 19 19 16 15 13 11 10 9 10 11 12
14 14 14 14 14 15 15 16 18 19 21 23 23 24 24 19 20 18 6 7 18 14 4 3 6 7 3 3 3 5 8 8 8 8 8 10 11 15 17 13 11 13 12 7 5 6 4 4 3 1 1 3 1 4 2 3 3 3 3 3 4 4 4 5 2 4 6 4 3 3 5 6 5 11 14 17 17 17 18 16 15 13 11 9 8 9 10 9
15 14 14 14 14 15 15 16 18 20 22 23 23 25 22 20 22 10 2 14 17 5 2 8 9 5 4 5 4 6 8 8 6 6 8 9 12 16 14 12 13 12 7 3 5 8 3 3 3 3 2 1 3 4 1 3 4 4 5 4 5 5 5 8 4 3 3 3 4 5 5 6 4 8 11 15 17 17 17 16 15 13 10 8 8 8 6 5
15 15 15 14 14 14 15 16 17 19 22 23 25 24 19 20 16 4 12 23 12 4 10 13 11 10 10 8 5 5 6 5 4 6 8 8 13 14 11 13 13 6 3 3 7 7 2 3 4 2 2 3 4 3 2 4 4 4 4 4 5 6 6 8 4 3 3 1 4 5 6 9 7 6 11 15 16 16 15 15 14 12 10 8 7 5 3 4
15 15 15 15 15 14 15 15 16 18 20 21 24 21 15 14 8 5 20 20 10 15 16 11 11 12 10 7 5 4 3 2 3 4 6 9 13 10 8 13 9 2 5 9 9 5 1 3 2 3 4 2 2 1 2 3 4 4 5 5 6 6 6 6 3 4 4 1 3 6 8 11 9 5 12 15 13 12 14 14 13 13 11 8 6 5 4 5
16 15 15 15 15 14 14 15 15 16 17 17 20 17 12 12 8 8 14 11 16 21 11 6 8 7 7 7 5 3 2 2 2 2 5 8 10 7 7 10 4 3 8 10 6 3 3 3 1 3 2 1 1 3 3 4 4 5 5 5 5 4 3 5 2 3 2 1 3 7 8 10 8 5 11 13 10 11 15 15 13 12 10 7 6 5 5 6
16 15 15 15 14 14 14 14 14 14 14 15 16 14 12 13 12 13 11 8 15 14 5 4 3 3 4 5 4 2 2 2 2 2 5 7 8 5 7 6 3 6 6 3 4 3 5 3 2 2 1 1 2 3 4 5 5 5 5 5 6 2 1 3 1 2 4 5 6 9 8 7 4 5 9 9 12 13 14 14 12 11 9 7 6 4 5 7
17 16 15 14 14 14 13 13 14 12 12 12 12 11 11 13 12 14 12 6 7 6 5 5 5 6 4 4 3 2 1 2 2 3 5 7 7 4 4 4 4 5 2 3 4 4 8 4 2 1 1 0 3 3 4 3 3 4 4 4 4 2 2 3 4 5 8 7 6 6 7 6 5 9 7 8 12 12 13 14 12 10 9 7 5 4 6 8
17 17 16 14 14 13 13 13 11 10 10 10 10 10 11 12 13 14 11 4 4 4 3 4 5 6 6 5 4 2 2 3 3 4 6 6 5 3 4 4 2 3 3 4 4 6 7 1 3 1 1 0 2 4 3 1 2 4 1 1 1 2 3 4 6 6 6 5 2 2 4 5 6 10 7 7 8 9 12 14 12 11 9 6 5 5 7 8
18 17 16 14 13 12 12 11 9 10 9 8 9 9 10 11 12 14 8 1 3 2 3 3 5 5 5 5 5 3 3 3 3 5 5 3 4 5 5 3 3 2 3 3 3 4 3 2 3 1 1 2 3 4 2 3 0 3 2 2 3 2 4 5 5 4 2 5 3 1 2 5 2 7 8 9 8 9 11 10 11 12 9 6 5 6 7 9
18 17 15 14 13 11 10 9 9 10 8 8 8 8 9 10 12 12 6 1 3 2 4 4 5 4 5 5 4 2 1 1 3 5 2 1 5 6 4 2 2 3 1 1 3 2 2 2 2 2 1 1 3 3 2 2 1 2 3 1 1 3 5 5 5 4 4 6 7 4 5 6 6 6 10 13 10 8 9 7 9 12 9 7 6 5 7 10
18 17 15 14 12 10 9 8 9 9 7 7 7 6 8 9 11 9 3 2 2 4 3 4 4 4 6 4 4 4 2 1 2 1 3 2 7 2 2 3 3 4 1 2 2 2 2 2 2 2 2 3 2 2 2 1 1 2 1 1 2 5 7 7 6 5 5 6 6 6 5 5 7 3 7 12 11 9 10 8 8 10 9 6 4 4 8 10
18 16 15 13 12 10 9 9 9 8 7 7 6 5 6 8 8 4 2 2 0 3 2 3 4 3 4 3 5 7 4 2 2 2 2 5 7 2 3 5 4 5 5 5 6 5 1 2 2 3 2 3 2 3 2 1 1 1 3 4 5 6 7 6 6 5 5 6 8 7 6 5 6 2 7 8 8 9 9 7 8 10 9 6 4 5 9 12
18 16 14 13 12 11 10 9 8 8 7 6 5 4 6 7 4 1 1 2 0 2 2 3 3 3 4 4 4 5 4 5 4 2 2 4 6 5 6 7 4 4 6 6 8 7 1 3 1 2 3 2 3 2 2 3 1 4 4 5 5 6 6 5 6 4 3 5 7 6 7 8 5 2 8 6 5 9 9 7 8 10 9 5 4 7 11 15
17 16 14 13 13 11 10 9 9 8 6 5 4 3 5 4 0 1 3 1 2 1 3 2 1 2 2 1 1 4 2 4 5 3 2 2 4 4 3 4 2 1 4 4 5 4 1 2 2 1 2 3 4 1 3 4 1 2 2 4 5 4 4 3 2 2 3 5 2 4 1 4 6 3 5 3 3 8 9 7 7 7 7 5 4 9 13 18
17 16 14 14 13 12 11 9 8 8 6 5 4 2 3 1 2 4 3 1 2 2 3 1 0 1 2 2 1 3 1 2 4 5 2 2 2 3 3 3 1 2 4 2 2 3 2 4 2 3 1 4 3 1 1 1 1 2 2 2 3 4 3 2 1 1 4 5 2 6 7 2 7 5 3 6 5 7 8 9 9 8 6 5 7 10 13 18
18 16 15 15 14 13 12 11 9 7 6 5 4 1 1 1 4 4 4 1 1 1 2 2 1 2 3 2 2 2 1 2 5 3 1 3 0 4 3 3 3 1 4 1 4 4 2 2 2 3 0 4 5 2 1 1 2 4 2 2 2 1 3 4 2 2 4 4 4 4 5 3 5 5 4 8 8 10 14 14 11 8 6 6 6 8 12 17
18 17 16 16 15 14 13 12 10 8 6 6 5 2 2 4 3 2 4 3 0 1 2 3 2 2 2 2 3 2 1 3 4 2 1 3 1 3 4 3 3 3 2 2 3 3 3 3 2 3 2 6 5 2 3 2 1 4 2 2 3 2 3 5 1 2 4 5 5 0 3 3 3 2 3 10 12 15 17 14 10 8 6 4 5 7 12 16
19 18 17 16 15 15 14 13 11 8 7 7 5 3 5 5 3 2 4 2 1 2 2 3 2 2 3 5 3 3 2 3 2 3 1 4 4 4 4 4 5 5 3 1 2 1 4 5 1 1 2 6 3 1 4 3 0 2 2 3 1 2 3 4 1 2 1 6 6 2 2 4 3 1 5 11 11 13 15 13 9 6 4 5 6 9 13 16
18 18 17 17 16 15 14 14 12 9 9 8 4 5 7 5 3 3 2 0 1 3 3 1 3 2 4 4 3 2 2 1 1 2 2 5 5 6 4 2 5 8 6 3 1 0 3 4 0 1 1 2 1 1 1 1 0 0 2 1 3 1 2 1 3 1 2 5 6 2 3 4 2 2 4 8 7 8 10 10 8 5 4 5 6 9 12 15
16 17 17 18 17 15 14 14 12 10 10 7 5 7 6 5 7 6 2 3 1 2 3 1 3 4 3 2 3 4 2 0 1 1 2 3 4 6 5 2 4 8 7 3 1 1 1 3 3 1 1 1 1 2 2 2 2 2 2 3 1 1 2 2 2 2 1 6 6 3 6 6 2 2 3 7 7 7 7 6 6 4 4 5 6 9 13 17
15 16 17 20 20 18 16 14 12 11 9 5 6 9 6 7 12 9 3 5 1 2 3 3 3 4 4 2 1 4 4 1 3 3 2 2 3 5 7 3 2 4 3 4 1 1 2 2 3 0 1 1 2 2 2 2 2 3 1 1 2 0 1 2 1 1 2 7 6 4 7 6 5 4 5 8 8 6 5 5 3 2 4 6 8 11 14 19
13 13 15 19 21 20 19 16 13 10 7 5 6 7 6 8 14 14 7 5 3 3 3 5 5 3 4 4 1 3 5 4 4 3 2 2 3 5 8 5 2 2 2 4 2 1 2 1 3 1 2 1 1 1 2 2 1 3 2 2 1 2 3 2 2 2 3 6 7 8 9 3 4 5 7 8 6 6 4 3 2 2 4 6 8 11 15 19
13 9 9 14 17 18 19 17 13 10 6 6 7 7 7 7 11 18 18 10 5 5 4 3 5 5 5 5 4 3 5 6 5 4 2 3 3 3 7 7 5 4 3 4 1 1 2 2 3 2 2 0 1 3 5 5 4 3 2 3 3 2 1 1 1 2 3 5 5 8 10 4 1 0 5 7 5 6 5 3 2 0 3 5 8 11 15 19
14 8 7 13 14 14 15 13 10 9 5 5 8 8 9 8 8 12 18 18 12 9 8 5 5 6 5 5 5 3 4 4 5 5 4 4 3 3 6 8 9 9 4 4 0 2 1 3 4 2 2 4 4 2 2 3 4 5 5 6 6 5 3 2 5 2 2 5 4 6 12 7 2 1 4 6 4 6 5 3 3 1 3 5 8 11 15 20
15 7 7 13 14 14 16 10 7 8 6 8 11 11 11 10 10 10 13 16 14 10 9 8 7 7 7 6 5 3 3 4 5 6 4 5 7 5 5 12 16 15 8 2 1 2 1 1 2 5 5 4 3 0 0 1 2 3 4 4 5 6 6 5 7 3 1 4 3 4 11 8 3 4 4 5 5 7 4 4 3 2 4 6 9 12 17 22
18 12 8 12 16 19 16 6 5 8 6 10 14 15 16 13 9 9 11 12 10 6 6 7 7 9 8 6 6 5 4 4 9 8 5 5 6 3 4 14 18 13 7 1 0 2 2 1 2 5 5 2 1 1 1 0 0 2 4 4 4 5 5 5 5 1 1 6 4 3 9 7 1 2 4 5 6 7 7 6 3 4 3 5 9 14 19 24
18 16 12 13 18 23 15 5 7 9 8 10 11 13 18 17 12 10 9 10 10 6 5 6 8 10 8 5 6 7 6 5 8 8 7 6 4 1 4 14 16 9 4 2 3 6 4 1 2 2 6 5 2 1 1 1 2 3 4 4 5 5 3 1 1 2 3 12 10 6 11 9 2 2 4 6 6 6 9 5 4 5 4 7 11 16 21 26
12 12 13 17 23 25 16 9 7 7 8 10 12 14 16 15 16 19 14 12 14 11 7 7 8 10 6 5 6 7 8 9 7 3 5 5 2 1 3 8 10 6 3 2 5 8 5 1 3 3 7 9 7 4 3 2 3 3 4 7 8 8 7 4 2 3 8 12 11 10 13 11 6 4 3 4 5 5 9 7 5 6 6 10 14 19 24 28
10 8 7 11 21 26 22 16 11 8 8 10 11 13 14 11 14 22 21 15 17 18 15 10 7 7 5 6 7 10 11 11 9 5 3 3 1 1 1 4 4 5 6 5 6 6 2 1 6 10 11 12 9 5 1 2 4 4 5 9 10 10 12 9 5 9 9 6 9 14 13 13 15 11 8 9 8 7 9 6 5 6 8 10 14 19 24 28
9 6 8 9 12 17 18 17 15 11 10 13 8 6 13 14 10 14 19 17 17 19 17 12 9 7 6 8 9 11 13 10 9 10 10 6 2 1 2 4 4 6 7 6 6 6 2 4 10 14 17 17 11 5 2 4 6 7 6 8 11 11 13 12 13 14 6 2 13 16 10 13 18 13 10 10 8 8 6 2 4 5 8 10 14 19 24 28
14 7 15 18 10 7 10 16 19 15 13 15 10 9 14 15 9 9 14 15 16 18 13 10 13 14 12 13 10 9 10 7 8 12 12 7 3 2 2 3 4 7 7 5 4 5 2 6 9 11 16 18 13 9 7 5 7 9 8 9 11 13 14 16 19 18 10 9 17 16 11 16 17 11 11 9 6 9 6 2 3 6 8 10 15 21 24 27
20 9 13 22 16 10 16 23 24 20 18 15 12 14 16 14 14 13 8 6 9 15 13 10 13 16 17 17 12 10 12 8 8 12 8 6 6 4 3 2 4 8 7 3 2 4 3 5 6 8 13 14 11 10 10 9 10 12 12 12 13 16 17 18 20 18 16 19 22 19 20 23 18 13 13 12 12 12 5 0 3 6 7 11 16 21 23 25
28 19 14 17 17 16 17 20 20 16 16 16 14 15 14 16 22 17 9 10 9 7 11 17 20 17 16 17 16 17 18 13 13 14 8 8 6 4 4 3 5 7 6 4 2 4 5 3 2 4 9 11 9 9 10 10 12 14 15 14 15 17 19 20 19 17 16 20 23 22 21 22 18 12 11 15 16 10 4 1 5 5 6 11 17 20 22 24
38 32 23 12 10 14 14 13 13 10 10 14 15 13 13 20 26 17 12 22 23 11 12 21 25 16 11 15 19 22 23 19 17 17 12 12 11 10 9 8 10 9 6 6 4 4 5 3 2 3 5 6 5 7 8 7 9 17 22 20 18 18 19 19 17 15 15 18 21 19 16 16 13 6 6 11 11 6 4 2 4 4 7 13 17 19 21 23
40 34 31 19 9 12 15 10 10 10 12 13 14 16 19 21 23 18 12 19 29 31 29 26 18 10 10 16 22 25 25 22 16 13 12 12 10 11 12 14 18 14 8 8 5 4 6 4 2 4 4 2 3 5 2 3 6 14 16 16 19 21 21 19 16 17 19 18 15 14 14 13 8 3 4 7 6 4 3 1 2 5 10 15 17 16 18 23
Wind_Direction
11 12 12 14 15 15 14 12 11 9 6 2 360 358 359 358 357 357 358 0 2 5 8 11 13 4 6 37 72 68 31 46 42 38 54 51 48 42 42 42 39 35 30 32 32 38 34 19 7 338 324 302 288 341 328 351 353 356 305 287 294 322 69 327 344 20 357 21 5 20 36 37 43 35 5 337 100 84 66 53 60 70 65 61 52 39 36 29
9 11 11 13 14 15 14 13 12 10 7 2 0 359 359 357 357 358 358 360 1 3 7 10 15 7 4 38 114 79 33 48 45 43 52 49 47 49 51 48 41 35 27 29 29 34 42 39 355 346 334 294 255 314 330 335 327 313 322 310 314 22 26 330 359 359 358 13 359 10 12 17 53 29 353 40 83 69 59 48 61 66 57 53 44 40 41 36
7 8 10 10 11 13 13 13 12 10 7 2 1 360 359 356 357 358 358 1 2 4 7 10 16 8 3 62 162 167 49 46 28 30 42 43 47 54 52 43 35 30 27 27 33 41 44 39 18 356 330 303 218 230 284 248 298 17 26 297 330 24 6 349 356 342 360 12 4 358 340 8 61 34 341 72 87 66 57 55 62 64 57 53 48 48 47 43
4 6 7 7 8 9 11 12 11 10 7 3 1 1 360 357 359 360 359 3 4 5 8 11 17 10 4 54 160 176 121 36 8 17 31 40 52 57 44 36 29 26 25 25 36 39 32 22 357 331 309 294 195 198 222 185 315 349 296 164 120 334 294 338 334 331 4 16 354 323 324 11 41 48 25 58 96 68 66 76 75 73 65 57 51 47 47 45
0 2 4 5 4 4 8 11 10 9 6 2 1 2 1 359 1 0 360 3 4 6 7 9 15 13 12 47 146 177 251 280 342 2 22 41 59 53 37 33 27 24 22 25 31 18 5 354 316 283 271 278 207 189 139 129 346 312 242 94 77 339 307 219 306 329 12 15 332 323 9 1 340 84 63 62 91 85 90 92 86 83 77 69 58 48 45 44
355 358 2 2 0 1 5 8 7 7 6 2 359 1 2 0 1 1 359 1 4 6 7 7 10 13 24 57 96 128 334 297 324 345 17 40 58 46 33 30 25 23 24 26 25 7 353 347 328 315 287 277 273 122 122 116 347 286 167 97 73 355 313 258 296 336 21 359 326 346 9 323 111 98 83 82 93 100 104 100 90 91 86 76 64 54 48 45
350 354 357 359 358 358 0 4 3 3 4 1 358 359 2 360 359 360 357 356 360 3 7 5 3 6 30 66 77 86 84 53 334 348 20 40 51 38 26 27 25 23 28 25 21 24 25 7 351 341 311 264 302 55 100 56 221 208 191 118 96 333 283 271 285 325 13 336 328 323 301 260 168 115 102 100 103 110 108 100 98 98 91 80 66 58 52 47
345 348 352 356 355 355 357 359 359 358 359 360 358 357 0 0 357 356 354 352 352 356 4 4 357 352 11 65 68 101 97 9 345 354 12 34 34 24 14 23 23 19 25 18 15 29 30 8 351 335 310 296 26 308 333 342 227 202 149 130 138 218 237 266 265 279 299 353 345 317 266 212 157 126 115 113 115 118 111 104 105 102 93 82 71 62 55 48
340 342 347 350 352 354 353 354 354 352 352 355 356 354 357 358 355 354 352 350 348 350 357 1 357 331 288 339 325 269 263 329 333 333 354 16 8 2 1 16 16 12 18 6 7 24 22 357 339 333 311 326 353 300 332 10 221 201 66 148 219 211 201 241 246 216 200 55 1 341 225 141 138 125 116 127 126 122 116 110 109 104 93 82 74 66 55 48
336 337 341 345 348 350 351 351 349 347 346 347 350 349 350 352 352 351 348 347 347 348 352 357 357 332 287 286 297 280 270 291 293 312 344 359 347 349 353 5 5 6 12 358 4 18 14 352 325 327 308 289 286 278 279 292 221 211 305 284 259 240 202 212 226 202 190 309 351 351 331 157 156 152 122 134 134 129 120 115 113 103 92 84 76 68 56 47
334 334 336 339 343 346 349 350 347 344 340 339 343 343 342 345 347 347 346 345 345 348 349 350 350 345 330 282 286 279 263 265 266 308 344 354 346 343 341 351 353 359 5 353 359 6 4 356 325 318 320 302 285 247 223 247 266 251 290 293 246 227 200 204 216 202 196 272 342 335 315 175 171 191 140 140 141 134 125 119 116 103 94 86 77 69 56 43
330 331 333 335 338 342 345 347 347 344 340 338 339 339 338 338 340 342 343 341 340 345 346 344 343 347 34 292 274 257 237 224 233 304 347 355 350 341 339 346 342 349 355 341 344 351 353 350 324 292 304 309 308 250 206 243 270 280 291 288 205 190 186 202 205 198 198 220 347 331 316 193 189 166 138 144 145 134 128 122 116 103 95 88 77 68 51 37
326 328 329 331 332 335 340 343 344 344 343 340 338 339 336 334 336 337 339 338 336 342 344 341 319 273 304 298 249 224 216 204 245 304 343 349 348 343 341 342 333 334 339 329 329 338 344 345 320 262 273 284 294 292 280 271 273 276 256 222 160 166 196 201 201 197 199 212 348 345 341 230 204 146 137 146 146 135 126 119 112 99 93 87 76 65 49 35
319 323 325 327 328 330 333 337 339 341 341 340 338 338 336 334 334 332 335 335 333 341 344 346 343 263 292 280 239 214 209 221 271 304 333 341 344 344 343 339 331 325 330 327 318 324 337 341 323 262 256 255 268 297 294 268 263 260 203 225 195 200 192 184 191 187 188 205 206 321 283 257 179 133 139 148 149 138 123 114 111 102 98 91 78 65 49 38
312 317 322 324 325 326 328 331 334 336 337 337 335 336 336 334 331 331 333 328 331 343 344 359 53 325 285 260 241 228 228 249 281 305 323 335 341 343 343 336 329 324 326 325 311 317 329 331 320 264 264 260 262 293 280 191 217 238 186 271 227 229 148 171 188 184 182 205 181 194 267 285 69 130 143 147 148 138 126 119 117 111 107 96 80 65 47 37
305 312 317 320 323 324 325 327 329 332 333 333 332 334 337 335 332 331 328 318 331 344 339 1 51 330 290 257 251 239 247 259 277 295 310 331 340 345 344 337 336 332 326 328 322 309 312 323 314 265 268 269 234 253 280 258 235 221 210 277 298 354 290 174 195 192 179 267 194 173 237 281 98 140 144 145 147 135 127 125 123 117 111 100 80 65 45 32
300 306 311 316 320 322 324 326 328 329 330 330 330 331 335 336 335 331 322 313 335 343 334 276 342 326 277 251 265 245 258 267 274 281 298 326 337 345 344 339 338 334 325 326 337 322 304 310 309 273 252 233 252 299 332 327 298 251 346 321 309 309 301 258 234 198 173 169 227 219 238 255 164 147 148 150 148 134 131 131 129 124 115 105 81 63 43 30
296 301 306 311 317 321 324 327 329 330 329 330 331 333 335 336 338 334 314 324 336 342 341 299 327 326 258 252 273 250 268 279 276 272 294 318 334 342 341 338 336 333 323 305 332 339 303 274 252 277 271 218 336 30 10 323 326 313 322 334 304 302 306 286 263 188 187 188 235 273 260 249 174 150 154 155 150 136 135 134 132 127 116 102 75 62 43 26
292 296 301 307 313 319 324 327 331 332 331 331 332 334 336 338 343 345 289 333 340 351 320 317 313 281 266 304 282 262 280 288 276 273 297 315 335 337 338 345 341 333 321 281 330 331 312 312 270 257 316 114 53 36 319 315 334 312 307 314 297 295 284 276 270 171 211 264 253 259 262 255 204 158 158 157 150 139 136 137 135 127 118 106 81 71 46 22
286 292 298 303 310 317 322 327 332 334 334 336 339 342 348 349 352 343 318 333 342 310 303 304 285 254 266 287 265 274 299 294 277 287 304 322 337 341 353 353 336 315 324 332 324 316 323 335 288 262 21 52 37 4 316 316 311 296 288 272 262 265 263 268 273 145 134 321 268 275 280 271 258 186 163 158 148 140 142 142 139 132 124 116 99 92 64 33
281 288 293 300 306 313 320 326 332 335 339 343 347 356 10 4 2 313 326 334 323 310 308 291 270 255 254 249 249 303 325 288 276 297 318 336 343 352 7 351 333 286 330 319 296 282 305 305 300 52 43 23 10 324 276 276 268 265 259 259 256 254 259 273 279 135 122 101 261 278 271 265 264 197 158 156 151 151 154 146 140 136 129 120 112 109 68 31
277 282 290 296 302 310 317 325 332 336 339 343 351 5 15 5 356 334 332 318 303 309 302 269 263 254 250 233 242 307 330 275 254 285 320 343 357 359 340 339 350 326 317 308 300 325 328 282 113 62 44 318 268 208 226 234 244 257 248 253 254 251 283 296 296 125 103 7 259 271 262 263 269 181 156 162 156 149 149 142 137 133 128 128 121 104 54 20
274 278 285 291 298 308 314 324 330 332 338 343 354 4 3 356 349 343 336 298 299 306 278 244 215 210 250 216 220 282 300 277 220 273 317 353 10 356 332 338 337 315 311 331 14 7 298 271 99 58 55 341 282 223 230 236 237 240 237 252 255 268 7 278 289 33 329 303 268 276 268 266 270 152 150 154 139 131 135 134 131 131 133 134 123 97 48 16
271 274 280 286 295 304 311 322 325 328 338 346 354 357 354 349 344 343 338 291 283 290 257 240 193 191 214 200 218 249 274 277 259 275 302 346 360 356 346 350 321 300 318 36 9 289 272 282 38 19 179 301 302 276 261 255 263 256 256 270 263 310 346 271 308 327 312 289 264 289 286 257 188 160 161 136 130 133 141 142 139 142 141 131 119 87 41 14
268 271 276 282 289 300 310 316 317 324 335 343 348 349 348 342 340 345 342 289 263 263 231 224 199 200 208 211 227 225 271 273 258 274 294 329 2 35 342 321 280 275 333 10 321 277 268 286 45 343 225 293 279 277 264 179 271 278 284 25 19 352 327 301 311 318 312 279 222 51 315 272 162 163 172 138 146 158 159 161 153 148 146 136 116 67 30 358
265 268 273 278 283 294 306 309 310 319 329 339 343 342 341 336 337 344 349 294 256 212 149 179 189 197 208 208 219 241 281 253 255 288 292 326 8 12 339 301 197 255 334 347 293 275 249 119 81 148 267 326 268 273 264 138 170 271 227 70 43 329 286 282 288 293 282 260 254 69 301 280 189 178 177 162 174 173 170 172 154 154 154 129 102 62 19 345
261 265 270 274 279 286 293 297 300 311 324 334 334 331 333 332 335 345 1 282 254 160 127 169 181 193 199 195 208 221 250 223 304 301 220 96 358 353 321 264 242 248 119 45 298 258 181 119 98 191 221 264 259 271 258 121 102 234 211 129 56 279 264 259 261 253 249 271 276 237 226 263 264 221 179 167 173 176 179 173 153 163 156 117 98 59 8 342
258 262 267 270 274 279 284 284 289 301 310 318 323 320 326 329 330 345 14 298 260 133 131 167 176 204 200 207 240 234 239 262 320 279 172 317 332 345 247 263 289 286 148 123 271 253 151 147 178 181 194 230 228 207 193 103 124 203 210 200 223 246 249 247 248 247 252 275 272 223 195 252 264 216 156 162 173 185 182 171 164 158 137 112 103 41 356 341
254 258 262 263 266 269 274 276 279 288 292 305 315 304 317 324 328 5 67 282 164 118 131 155 156 190 194 231 245 228 234 228 235 232 207 312 311 262 244 280 306 296 264 209 234 264 140 136 151 133 174 223 172 143 149 131 187 295 320 278 249 239 238 236 233 244 255 258 264 243 186 221 271 168 147 168 184 191 182 167 159 142 124 114 91 21 347 347
250 254 256 254 256 257 261 267 268 272 281 296 295 287 313 317 322 49 208 255 50 85 112 142 154 171 196 241 218 184 201 217 209 233 255 283 284 260 262 284 294 285 270 245 248 260 149 116 137 173 205 174 121 141 163 172 248 350 334 288 278 253 240 226 213 225 262 253 263 260 197 207 262 176 162 190 187 174 172 158 145 136 126 118 70 6 353 357
245 248 249 247 247 247 253 259 259 263 273 283 271 276 306 312 4 192 230 261 20 111 128 130 184 165 181 268 203 168 204 239 198 180 237 237 246 253 266 286 300 317 287 270 266 275 162 179 218 196 188 117 94 173 190 187 212 25 320 294 315 294 256 239 207 170 231 250 274 11 20 219 247 229 166 181 131 140 156 149 139 136 126 108 38 3 0 357
242 242 243 242 240 241 246 250 255 261 268 265 251 269 319 301 208 222 229 34 18 202 155 116 273 152 117 64 286 226 234 282 209 181 188 135 203 234 201 206 162 347 288 251 311 314 241 223 172 85 99 153 125 45 228 229 188 173 244 286 312 327 314 284 307 162 229 246 174 76 35 289 243 257 188 169 144 124 129 126 126 129 116 78 24 6 358 355
238 237 236 235 235 236 238 244 250 252 258 245 217 195 70 214 224 216 211 231 327 200 113 80 97 93 92 98 251 222 79 256 217 182 109 104 246 266 239 210 156 200 262 317 347 308 285 308 118 104 43 181 170 156 203 241 170 191 210 194 200 334 315 279 269 243 250 242 184 105 23 289 245 265 206 164 142 121 119 120 120 114 94 55 23 3 354 356
234 233 233 231 231 233 233 240 243 241 245 222 195 172 181 220 244 234 224 220 177 178 100 85 97 113 132 223 230 157 103 251 196 124 63 125 159 265 257 239 174 173 243 337 326 266 272 303 192 175 177 170 183 170 152 135 155 210 181 130 169 155 231 258 258 244 274 279 245 213 353 248 218 282 154 130 123 123 126 129 121 106 90 55 21 4 357 356
233 232 231 229 230 231 233 238 238 238 233 207 190 193 200 219 241 242 245 241 146 172 127 104 132 167 225 231 224 176 189 250 142 105 187 181 190 228 216 205 189 168 145 182 271 216 232 252 223 49 138 153 174 121 121 102 352 245 89 85 199 188 219 261 271 200 271 301 273 212 224 217 153 75 109 118 124 132 140 143 129 104 74 42 16 6 360 353
235 236 233 230 228 228 232 235 235 235 218 194 189 215 214 221 218 212 226 115 120 136 108 132 188 209 254 225 216 217 169 217 85 89 218 205 214 226 211 178 178 181 174 175 256 249 244 259 249 32 31 115 86 64 126 128 112 115 82 151 231 200 147 261 299 1 64 298 274 194 249 264 128 134 138 133 142 151 154 147 125 94 46 32 15 4 357 351
237 241 240 235 227 225 230 231 233 230 210 191 208 222 219 227 233 240 195 120 92 101 102 288 195 188 246 249 204 199 155 339 179 165 232 220 225 214 193 149 166 190 191 162 229 225 217 268 235 176 300 129 84 4 313 263 142 127 170 199 209 27 83 133 290 359 37 271 264 180 234 245 178 211 180 156 171 172 157 130 114 94 47 23 7 1 352 346
236 247 250 242 233 228 227 229 233 223 198 191 233 235 233 233 236 241 163 134 137 92 136 233 203 176 212 252 231 165 149 158 164 180 230 221 226 182 162 161 175 202 187 129 179 314 62 276 255 203 334 149 94 1 302 245 151 123 197 228 97 139 236 139 157 242 241 266 273 247 246 231 195 202 178 181 192 171 128 98 95 52 30 16 2 354 344 340
231 251 255 246 239 233 228 231 230 210 190 200 227 228 229 235 241 241 216 162 161 143 175 223 217 210 208 209 230 140 161 188 181 190 215 202 221 167 159 177 178 175 128 121 170 286 63 252 258 317 332 67 96 203 205 202 111 77 16 319 102 173 210 169 155 185 228 266 281 286 282 251 191 190 166 174 174 136 112 91 94 19 14 11 356 346 339 337
219 238 249 237 236 233 227 226 217 197 196 219 223 228 232 233 241 239 231 221 197 185 204 209 199 225 236 225 239 205 188 208 209 212 212 194 222 196 178 175 148 140 83 66 88 24 83 215 243 316 337 258 186 201 197 195 176 148 181 215 205 183 160 220 227 155 202 253 269 285 285 265 164 164 129 133 131 128 130 130 148 84 19 9 349 340 338 336
205 223 239 221 225 224 207 202 199 195 210 230 226 236 241 243 245 236 226 221 218 215 220 227 215 225 245 244 240 215 200 227 216 217 238 212 209 233 199 166 145 146 110 51 298 196 150 213 232 249 241 229 227 215 202 190 176 186 200 199 203 193 155 230 252 184 175 239 228 258 274 267 203 208 125 117 133 138 126 146 191 124 30 360 344 340 337 335
199 219 233 211 213 205 189 184 193 199 214 227 228 233 237 244 246 233 215 209 217 223 223 234 235 232 243 241 232 206 194 245 233 213 231 211 198 218 194 164 157 155 142 106 223 190 106 105 245 256 252 243 246 239 95 201 190 223 234 209 194 189 174 208 241 222 164 238 205 239 271 272 169 167 146 128 150 150 162 214 196 88 28 345 337 338 335 333
206 215 213 202 200 189 183 196 206 200 222 231 232 237 235 237 234 222 210 199 203 210 215 231 226 224 234 222 220 219 184 242 251 228 231 231 209 214 162 162 162 153 140 153 176 120 99 86 236 270 284 274 243 18 14 290 149 267 249 215 194 204 186 196 230 205 165 236 211 211 256 261 160 147 146 153 167 170 204 222 135 88 13 343 339 338 337 335
212 218 215 206 194 184 186 216 205 207 230 227 232 239 236 236 227 215 208 192 189 187 208 235 221 218 224 190 202 217 179 214 257 228 212 225 211 120 134 162 169 166 159 196 162 155 171 176 151 281 301 284 268 297 276 225 194 230 230 196 208 219 161 116 221 115 243 243 226 224 250 248 209 147 145 165 187 196 220 229 86 73 7 357 347 342 340 334
204 215 218 210 193 188 202 224 212 224 224 216 234 237 233 240 231 224 225 213 208 206 216 242 221 210 210 170 197 225 199 210 245 217 178 202 212 93 137 168 180 175 147 137 156 164 179 200 167 205 269 268 270 283 262 205 187 220 221 200 208 208 192 203 220 197 239 244 224 223 247 253 237 211 203 221 228 237 253 278 23 38 3 354 346 342 338 333
190 198 201 193 191 199 217 226 225 243 228 217 239 233 224 237 232 224 225 227 227 222 226 240 218 198 200 177 206 240 227 214 224 228 199 186 193 322 192 184 175 151 137 138 150 150 127 268 212 219 240 249 260 275 240 173 185 203 209 205 208 209 208 211 216 224 234 253 245 236 239 261 265 260 268 273 272 276 277 299 14 17 350 347 344 338 334 332
197 205 186 165 183 209 225 228 224 232 231 223 234 236 223 228 231 216 209 215 225 224 230 239 213 192 195 187 207 239 235 218 214 234 242 219 161 13 218 187 163 156 147 142 149 133 107 244 223 224 239 248 260 267 190 183 214 220 211 204 207 211 210 210 219 229 223 233 256 248 233 252 262 263 266 267 270 280 283 338 26 356 338 338 340 336 332 331
208 221 202 191 188 199 208 215 214 218 232 228 228 246 237 229 230 217 200 203 216 213 216 235 221 209 205 201 209 237 236 220 213 230 238 220 165 109 188 197 186 181 155 133 159 133 131 248 224 218 242 251 257 258 237 223 238 236 222 212 218 219 216 219 228 232 225 231 252 262 258 254 258 264 266 262 270 285 292 29 359 324 328 334 337 334 330 329
210 230 209 199 206 207 198 201 201 208 224 224 225 238 237 234 235 229 201 188 220 214 207 227 231 215 211 212 213 231 235 220 224 233 219 197 198 170 170 230 198 184 163 130 170 141 143 253 226 216 252 257 249 252 254 254 261 256 238 223 228 234 229 230 237 235 231 241 254 264 265 264 264 265 268 276 283 281 275 115 311 313 329 337 334 329 325 324
209 212 199 195 218 224 204 193 191 203 219 217 225 233 225 230 236 231 208 203 219 209 196 223 237 220 209 216 216 229 234 219 229 240 196 168 209 190 183 210 158 167 176 147 163 190 192 234 174 190 257 263 237 237 251 256 262 267 259 238 231 242 242 239 241 236 233 243 251 255 260 266 266 261 268 276 273 260 208 229 301 312 331 334 327 323 322 320
214 215 208 197 225 225 209 194 186 197 219 213 220 225 215 225 230 227 219 221 226 221 191 214 233 229 214 221 220 229 235 224 233 246 212 193 213 201 195 185 146 152 183 169 172 201 202 222 107 142 247 260 206 207 237 265 279 273 266 249 231 235 240 238 237 231 229 239 247 251 253 258 265 267 262 261 251 211 171 228 295 307 324 327 320 318 318 316
214 217 216 214 231 220 211 208 188 200 226 215 207 214 219 224 222 216 226 230 228 229 225 222 225 224 227 233 229 233 238 232 236 246 223 211 216 200 192 179 162 160 169 172 183 191 185 203 167 154 224 278 113 150 176 359 304 273 261 237 220 227 236 241 242 235 229 231 240 245 244 252 272 286 244 245 225 180 152 140 305 311 317 318 315 311 309 312
Height
1555 1554 1553 1552 1551 1550 1548 1547 1546 1545 1543 1542 1540 1539 1538 1537 1535 1533 1532 1530 1529 1528 1527 1525 1523 1522 1521 1521 1520 1521 1520 1520 1520 1519 1519 1518 1518 1518 1517 1517 1517 1517 1516 1515 1514 1513 1513 1514 1515 1515 1515 1514 1514 1514 1514 1514 1513 1513 1514 1515 1516 1511 1510 1509 1507 1509 1510 1510 1510 1511 1511 1513 1514 1514 1514 1513 1515 1517 1518 1520 1521 1521 1523 1525 1526 1526 1524 1523
1556 1555 1553 1552 1551 1550 1549 1548 1547 1545 1544 1542 1541 1540 1539 1537 1536 1534 1533 1531 1529 1528 1527 1525 1524 1522 1521 1521 1521 1521 1521 1520 1520 1520 1519 1519 1518 1518 1518 1517 1517 1516 1516 1515 1514 1513 1513 1514 1514 1514 1514 1514 1514 1514 1514 1514 1513 1514 1514 1515 1516 1511 1509 1507 1506 1507 1508 1510 1511 1511 1512 1512 1514 1514 1513 1514 1516 1517 1518 1521 1521 1522 1523 1524 1524 1524 1523 1522
1556 1555 1554 1553 1552 1551 1550 1548 1547 1546 1544 1543 1542 1540 1539 1538 1536 1535 1533 1532 1530 1528 1526 1525 1524 1523 1521 1521 1521 1521 1521 1521 1521 1520 1520 1520 1519 1519 1519 1518 1517 1517 1516 1515 1514 1513 1513 1513 1513 1513 1513 1513 1513 1513 1513 1514 1514 1513 1515 1516 1515 1510 1508 1507 1507 1508 1509 1511 1511 1512 1512 1512 1514 1514 1513 1514 1516 1517 1519 1521 1521 1522 1523 1523 1524 1523 1522 1521
1556 1555 1554 1553 1552 1551 1550 1549 1547 1546 1545 1543 1542 1541 1540 1538 1537 1535 1534 1532 1530 1528 1526 1525 1524 1523 1522 1521 1521 1522 1521 1521 1522 1521 1521 1520 1520 1520 1519 1519 1518 1517 1516 1515 1514 1513 1512 1512 1512 1513 1513 1512 1511 1512 1512 1513 1514 1513 1514 1514 1512 1509 1509 1508 1508 1509 1510 1511 1512 1512 1511 1512 1513 1514 1513 1513 1516 1519 1520 1521 1521 1522 1523 1523 1523 1522 1521 1520
1556 1555 1554 1553 1552 1551 1550 1549 1547 1546 1545 1544 1542 1541 1540 1539 1537 1536 1534 1532 1530 1528 1527 1525 1524 1523 1522 1521 1521 1521 1522 1523 1523 1522 1522 1521 1521 1521 1520 1519 1518 1517 1517 1516 1514 1513 1513 1513 1513 1512 1512 1511 1510 1511 1512 1512 1513 1513 1512 1511 1510 1509 1509 1508 1508 1509 1510 1512 1512 1511 1511 1512 1512 1513 1514 1514 1517 1520 1520 1521 1521 1522 1523 1523 1523 1522 1521 1519
1556 1555 1554 1553 1552 1551 1550 1549 1548 1546 1545 1544 1542 1541 1540 1539 1538 1536 1534 1533 1531 1529 1527 1526 1524 1523 1523 1522 1522 1521 1522 1525 1524 1522 1522 1522 1522 1521 1520 1520 1519 1518 1517 1516 1515 1515 1514 1514 1513 1511 1511 1510 1509 1510 1511 1511 1512 1514 1512 1510 1511 1511 1510 1509 1509 1510 1511 1512 1512 1511 1511 1512 1511 1513 1515 1515 1517 1520 1520 1520 1521 1522 1522 1522 1522 1521 1521 1520
1556 1555 1554 1553 1552 1551 1550 1549 1547 1546 1545 1544 1542 1541 1541 1539 1538 1536 1535 1533 1531 1530 1528 1526 1525 1524 1523 1522 1522 1522 1522 1523 1523 1522 1522 1522 1522 1521 1521 1520 1519 1519 1517 1517 1516 1515 1514 1514 1513 1512 1512 1510 1509 1509 1510 1510 1511 1513 1512 1510 1512 1511 1510 1509 1509 1510 1511 1511 1511 1510 1511 1510 1511 1513 1514 1516 1518 1519 1519 1520 1520 1521 1522 1522 1522 1522 1522 1521
1556 1555 1554 1553 1552 1551 1550 1549 1547 1546 1545 1544 1543 1541 1540 1539 1538 1536 1535 1533 1531 1530 1529 1527 1526 1525 1524 1523 1523 1523 1522 1522 1522 1522 1522 1522 1522 1521 1521 1520 1520 1519 1518 1518 1517 1516 1515 1515 1514 1513 1512 1511 1510 1510 1509 1510 1510 1510 1511 1510 1511 1511 1510 1509 1509 1510 1510 1511 1510 1509 1509 1509 1509 1511 1514 1516 1518 1518 1519 1520 1520 1521 1521 1521 1522 1522 1523 1522
1556 1555 1554 1553 1552 1551 1550 1549 1548 1546 1545 1544 1543 1541 1540 1539 1538 1536 1535 1533 1532 1530 1529 1528 1526 1525 1524 1524 1523 1523 1523 1522 1522 1522 1522 1522 1522 1521 1521 1520 1520 1519 1518 1518 1517 1517 1516 1515 1515 1514 1513 1512 1512 1511 1510 1511 1511 1508 1509 1510 1510 1510 1510 1509 1509 1509 1509 1509 1509 1508 1507 1508 1508 1510 1514 1516 1517 1518 1518 1519 1520 1521 1521 1520 1521 1522 1523 1522
1556 1555 1554 1553 1552 1551 1549 1548 1547 1546 1545 1544 1543 1542 1540 1539 1538 1537 1535 1533 1532 1530 1528 1527 1526 1525 1524 1524 1523 1523 1523 1522 1522 1522 1522 1522 1522 1521 1521 1520 1520 1520 1519 1519 1518 1517 1516 1516 1516 1515 1515 1513 1513 1512 1510 1511 1510 1508 1509 1509 1509 1509 1508 1508 1508 1508 1508 1508 1507 1508 1507 1507 1507 1508 1513 1516 1515 1516 1517 1519 1520 1520 1520 1520 1521 1522 1522 1522
1555 1555 1554 1553 1551 1550 1549 1548 1547 1546 1545 1544 1543 1541 1540 1539 1538 1536 1535 1533 1532 1530 1529 1527 1526 1525 1525 1524 1523 1523 1523 1522 1522 1522 1522 1522 1522 1521 1521 1520 1520 1520 1519 1519 1518 1518 1517 1517 1516 1516 1515 1514 1513 1511 1510 1510 1509 1508 1509 1508 1507 1508 1508 1507 1507 1507 1507 1507 1507 1507 1507 1507 1507 1507 1510 1513 1514 1515 1516 1518 1519 1519 1519 1519 1520 1521 1522 1522
1555 1554 1553 1552 1551 1550 1549 1548 1547 1546 1544 1543 1542 1541 1540 1539 1538 1536 1535 1533 1532 1530 1529 1527 1526 1526 1525 1524 1523 1523 1523 1522 1522 1522 1522 1522 1522 1521 1521 1520 1520 1520 1520 1519 1518 1518 1517 1517 1516 1516 1515 1515 1513 1510 1510 1509 1508 1508 1509 1509 1506 1506 1508 1507 1506 1506 1507 1507 1507 1507 1508 1507 1506 1506 1508 1511 1513 1514 1515 1517 1518 1518 1517 1519 1520 1520 1521 1520
1554 1554 1553 1552 1551 1550 1548 1547 1546 1545 1544 1543 1542 1541 1539 1538 1537 1536 1534 1533 1531 1530 1528 1526 1525 1525 1525 1524 1523 1523 1522 1522 1522 1522 1522 1522 1522 1521 1520 1520 1520 1520 1520 1518 1518 1517 1517 1516 1516 1516 1515 1515 1513 1511 1511 1509 1509 1509 1508 1508 1508 1510 1510 1506 1506 1506 1506 1508 1507 1508 1512 1508 1503 1505 1507 1509 1512 1512 1514 1515 1516 1516 1516 1518 1519 1519 1519 1519
1554 1553 1552 1551 1550 1549 1548 1547 1546 1544 1543 1542 1541 1540 1539 1538 1536 1535 1534 1532 1531 1529 1527 1526 1525 1525 1525 1524 1523 1523 1522 1522 1522 1522 1522 1521 1521 1521 1520 1520 1520 1520 1519 1518 1517 1517 1517 1516 1515 1514 1514 1514 1512 1512 1510 1509 1510 1508 1507 1508 1508 1512 1510 1504 1505 1506 1507 1508 1506 1509 1515 1508 1501 1504 1507 1508 1510 1510 1512 1513 1514 1515 1516 1517 1518 1519 1518 1518
1554 1552 1552 1551 1550 1549 1547 1546 1545 1544 1543 1542 1540 1539 1538 1537 1535 1534 1533 1531 1530 1529 1527 1526 1525 1525 1525 1524 1523 1523 1522 1522 1522 1522 1522 1521 1521 1520 1520 1519 1519 1519 1518 1517 1517 1516 1516 1515 1514 1514 1513 1512 1512 1513 1510 1509 1510 1507 1509 1510 1505 1508 1509 1505 1505 1505 1506 1507 1505 1508 1513 1507 1502 1505 1506 1507 1509 1509 1511 1512 1513 1515 1516 1517 1517 1517 1517 1516
1553 1552 1551 1550 1549 1548 1547 1546 1544 1543 1542 1541 1540 1538 1537 1536 1534 1533 1531 1530 1530 1528 1526 1526 1525 1525 1525 1524 1523 1522 1522 1522 1522 1522 1521 1521 1520 1520 1519 1519 1518 1518 1517 1516 1516 1516 1515 1514 1513 1513 1513 1512 1512 1512 1510 1510 1511 1508 1510 1511 1506 1507 1509 1507 1506 1504 1504 1506 1504 1506 1510 1506 1505 1506 1506 1507 1508 1508 1510 1511 1513 1514 1515 1516 1516 1516 1515 1514
1552 1551 1551 1550 1549 1548 1547 1545 1544 1543 1542 1540 1539 1537 1536 1534 1532 1531 1529 1529 1529 1527 1526 1525 1525 1525 1524 1523 1522 1522 1522 1522 1522 1521 1521 1521 1520 1519 1519 1518 1517 1517 1515 1515 1515 1514 1514 1513 1513 1512 1512 1512 1510 1510 1515 1517 1516 1512 1510 1511 1509 1507 1508 1509 1508 1505 1503 1505 1504 1504 1506 1505 1504 1506 1506 1507 1507 1507 1508 1510 1512 1514 1515 1515 1515 1514 1513 1513
1551 1551 1550 1550 1548 1547 1546 1545 1544 1542 1541 1540 1538 1536 1534 1533 1531 1529 1528 1528 1528 1526 1525 1524 1525 1526 1525 1522 1522 1522 1521 1522 1521 1521 1521 1520 1520 1519 1518 1517 1516 1516 1514 1514 1515 1514 1514 1512 1511 1512 1511 1511 1510 1513 1521 1523 1520 1518 1516 1516 1514 1511 1510 1509 1507 1505 1503 1504 1504 1504 1504 1502 1502 1505 1505 1505 1506 1506 1507 1510 1511 1513 1513 1514 1513 1512 1512 1514
1550 1550 1549 1549 1548 1547 1546 1545 1544 1542 1540 1539 1537 1535 1533 1531 1529 1527 1527 1528 1527 1526 1526 1525 1525 1527 1525 1522 1522 1522 1521 1521 1520 1520 1520 1520 1520 1519 1517 1517 1516 1515 1515 1515 1514 1513 1513 1512 1512 1514 1513 1512 1514 1516 1520 1520 1519 1520 1519 1519 1519 1517 1514 1507 1503 1503 1503 1503 1503 1503 1503 1499 1499 1503 1504 1504 1505 1506 1507 1509 1511 1511 1512 1512 1512 1511 1513 1515
1549 1548 1548 1548 1547 1547 1545 1545 1543 1542 1540 1538 1536 1533 1531 1529 1528 1526 1525 1525 1525 1526 1526 1525 1524 1524 1523 1521 1521 1521 1520 1520 1520 1520 1520 1519 1519 1518 1516 1516 1515 1515 1515 1515 1515 1512 1513 1515 1515 1515 1515 1514 1515 1515 1516 1517 1517 1518 1519 1519 1519 1517 1513 1505 1502 1503 1502 1504 1504 1501 1501 1499 1497 1499 1502 1503 1504 1505 1507 1508 1509 1510 1511 1511 1511 1512 1513 1514
1548 1548 1547 1547 1546 1546 1545 1544 1543 1542 1540 1538 1536 1533 1533 1533 1532 1530 1526 1523 1523 1523 1523 1522 1521 1521 1520 1520 1521 1520 1520 1520 1519 1519 1519 1519 1518 1517 1516 1516 1515 1516 1515 1514 1513 1512 1513 1517 1517 1515 1515 1515 1515 1514 1515 1516 1517 1517 1518 1518 1517 1515 1510 1503 1501 1502 1501 1505 1505 1501 1501 1498 1495 1496 1499 1501 1503 1504 1505 1506 1508 1509 1510 1510 1510 1511 1511 1512
1547 1546 1545 1546 1545 1545 1544 1543 1543 1542 1540 1539 1537 1535 1535 1535 1535 1534 1531 1525 1521 1519 1520 1520 1519 1519 1519 1520 1520 1520 1520 1519 1518 1518 1518 1518 1518 1517 1517 1516 1517 1518 1515 1512 1512 1515 1517 1517 1515 1514 1514 1514 1514 1514 1515 1516 1516 1517 1516 1517 1516 1512 1507 1503 1500 1501 1502 1505 1505 1502 1500 1497 1493 1494 1498 1500 1501 1503 1504 1505 1507 1508 1508 1509 1509 1510 1510 1511
1545 1544 1545 1544 1543 1544 1543 1543 1542 1541 1540 1539 1537 1537 1536 1535 1535 1534 1533 1529 1521 1517 1518 1518 1518 1519 1518 1519 1519 1519 1519 1518 1518 1517 1517 1518 1517 1517 1517 1516 1518 1517 1515 1513 1515 1521 1521 1515 1512 1513 1513 1513 1513 1513 1514 1515 1515 1515 1514 1516 1514 1509 1509 1509 1504 1502 1503 1505 1504 1501 1499 1495 1493 1495 1498 1500 1501 1503 1505 1505 1506 1507 1508 1508 1508 1509 1509 1510
1543 1543 1543 1542 1543 1543 1542 1542 1541 1540 1540 1539 1538 1537 1536 1535 1534 1533 1532 1529 1522 1518 1517 1517 1518 1518 1518 1518 1519 1518 1518 1518 1517 1516 1517 1517 1516 1517 1517 1517 1518 1517 1515 1515 1516 1519 1517 1512 1511 1512 1512 1513 1513 1513 1513 1514 1514 1512 1511 1513 1512 1510 1512 1513 1509 1507 1506 1504 1501 1501 1499 1492 1491 1496 1498 1500 1502 1503 1505 1506 1506 1507 1507 1507 1508 1508 1509 1509
1541 1541 1541 1541 1542 1541 1541 1541 1540 1540 1539 1538 1538 1537 1536 1535 1533 1533 1531 1529 1524 1518 1516 1517 1517 1518 1517 1517 1518 1518 1518 1517 1516 1516 1516 1516 1516 1516 1516 1517 1517 1516 1514 1515 1516 1516 1512 1510 1510 1511 1511 1512 1514 1514 1512 1513 1516 1514 1512 1513 1514 1514 1515 1514 1513 1513 1512 1509 1500 1501 1504 1493 1487 1494 1497 1500 1503 1504 1505 1505 1506 1506 1506 1507 1507 1507 1508 1508
1539 1539 1539 1540 1540 1540 1540 1539 1539 1540 1538 1538 1538 1536 1537 1535 1534 1534 1530 1531 1527 1517 1515 1517 1516 1517 1517 1517 1517 1517 1518 1516 1515 1515 1515 1516 1516 1516 1517 1516 1515 1516 1515 1514 1515 1513 1510 1509 1510 1511 1512 1512 1513 1513 1511 1511 1516 1516 1514 1515 1515 1515 1516 1516 1516 1517 1517 1511 1499 1499 1508 1500 1491 1493 1495 1498 1501 1501 1503 1503 1503 1505 1505 1506 1506 1506 1508 1508
1537 1537 1538 1538 1538 1539 1539 1538 1539 1538 1537 1539 1537 1536 1537 1534 1535 1533 1531 1537 1530 1514 1514 1517 1515 1516 1516 1516 1516 1517 1519 1516 1514 1515 1514 1515 1515 1516 1518 1516 1515 1515 1514 1516 1518 1512 1508 1510 1511 1511 1512 1513 1513 1513 1511 1511 1515 1516 1514 1515 1515 1515 1516 1515 1516 1518 1514 1508 1501 1498 1503 1503 1494 1488 1488 1494 1499 1499 1500 1501 1502 1503 1504 1504 1505 1506 1506 1506
1535 1536 1536 1536 1537 1537 1538 1537 1538 1537 1538 1538 1536 1537 1536 1534 1536 1532 1536 1546 1529 1509 1512 1515 1514 1515 1515 1516 1516 1516 1517 1515 1515 1515 1514 1515 1516 1516 1517 1515 1516 1515 1513 1518 1520 1511 1506 1510 1511 1510 1512 1513 1512 1511 1511 1511 1513 1514 1514 1514 1514 1514 1514 1513 1514 1515 1512 1509 1506 1497 1499 1503 1492 1481 1484 1490 1495 1497 1497 1498 1500 1501 1502 1503 1504 1504 1504 1504
1533 1534 1534 1535 1535 1536 1536 1536 1536 1536 1537 1536 1536 1537 1534 1535 1535 1531 1542 1546 1520 1506 1513 1513 1514 1515 1514 1515 1515 1514 1515 1514 1515 1515 1514 1515 1515 1516 1517 1514 1515 1515 1513 1515 1515 1509 1507 1510 1510 1510 1512 1511 1510 1511 1511 1512 1513 1512 1512 1511 1511 1511 1510 1510 1512 1512 1511 1510 1506 1497 1497 1501 1490 1481 1488 1492 1490 1493 1493 1494 1497 1498 1500 1501 1501 1503 1502 1501
1531 1532 1532 1533 1533 1534 1534 1534 1535 1536 1536 1536 1536 1535 1535 1536 1534 1538 1550 1540 1514 1510 1515 1512 1514 1514 1513 1514 1513 1513 1514 1513 1513 1514 1514 1515 1515 1515 1515 1514 1514 1514 1513 1512 1511 1508 1508 1510 1510 1510 1509 1508 1509 1511 1510 1511 1511 1511 1512 1510 1510 1508 1505 1507 1508 1508 1512 1508 1500 1494 1491 1495 1492 1483 1484 1486 1483 1484 1488 1491 1494 1496 1497 1499 1499 1500 1499 1497
1529 1530 1530 1531 1532 1532 1532 1533 1534 1534 1535 1535 1534 1535 1535 1534 1535 1544 1546 1525 1511 1514 1514 1513 1515 1513 1513 1515 1514 1513 1513 1512 1512 1513 1514 1514 1515 1515 1515 1515 1514 1515 1515 1512 1510 1509 1509 1510 1508 1507 1506 1506 1509 1510 1509 1510 1510 1512 1513 1512 1511 1506 1501 1503 1504 1506 1513 1506 1496 1495 1492 1493 1494 1482 1477 1480 1478 1478 1483 1487 1491 1493 1495 1496 1497 1496 1495 1494
1527 1527 1528 1529 1530 1530 1531 1532 1532 1533 1534 1533 1534 1534 1535 1538 1540 1539 1529 1514 1513 1515 1512 1514 1515 1512 1515 1516 1516 1515 1514 1513 1511 1511 1514 1515 1515 1514 1515 1515 1514 1517 1516 1510 1510 1510 1507 1507 1506 1506 1506 1507 1508 1510 1510 1510 1510 1513 1514 1514 1515 1511 1506 1505 1505 1505 1506 1500 1496 1498 1496 1494 1487 1476 1473 1478 1478 1479 1482 1485 1488 1491 1492 1493 1493 1492 1492 1492
1524 1525 1526 1527 1527 1528 1529 1530 1531 1532 1532 1532 1534 1533 1535 1545 1542 1528 1518 1513 1513 1512 1510 1513 1514 1514 1517 1517 1516 1515 1515 1514 1510 1511 1513 1515 1517 1514 1514 1514 1513 1517 1517 1511 1512 1510 1505 1504 1505 1506 1506 1505 1507 1508 1509 1509 1511 1513 1512 1512 1513 1515 1516 1511 1505 1501 1497 1494 1494 1495 1497 1493 1482 1472 1470 1474 1477 1480 1482 1484 1487 1488 1489 1490 1490 1491 1491 1490
1521 1523 1524 1524 1525 1526 1527 1529 1529 1530 1531 1531 1533 1533 1540 1546 1533 1518 1515 1512 1510 1511 1512 1513 1514 1516 1517 1517 1514 1512 1514 1513 1509 1512 1515 1516 1520 1517 1512 1513 1513 1515 1517 1516 1514 1511 1508 1504 1503 1505 1503 1504 1506 1505 1506 1507 1509 1510 1508 1510 1511 1511 1514 1510 1504 1502 1500 1497 1493 1493 1494 1486 1476 1471 1469 1472 1477 1479 1481 1484 1485 1486 1488 1489 1489 1490 1489 1488
1519 1520 1521 1522 1523 1524 1525 1527 1527 1529 1530 1530 1531 1534 1539 1538 1524 1517 1515 1509 1508 1512 1513 1513 1515 1517 1517 1515 1512 1511 1513 1513 1510 1514 1515 1515 1517 1514 1509 1509 1511 1513 1516 1517 1511 1508 1507 1501 1501 1505 1502 1504 1506 1504 1506 1507 1508 1508 1506 1510 1511 1508 1507 1505 1503 1505 1508 1507 1497 1491 1487 1475 1471 1473 1472 1474 1478 1479 1482 1483 1484 1486 1486 1487 1488 1487 1487 1487
1517 1517 1519 1519 1520 1522 1523 1525 1525 1527 1528 1528 1531 1532 1529 1523 1515 1513 1510 1506 1508 1510 1512 1515 1515 1517 1516 1512 1512 1512 1512 1514 1513 1514 1514 1512 1510 1507 1504 1505 1507 1509 1510 1511 1507 1505 1505 1500 1503 1507 1503 1505 1506 1504 1506 1506 1506 1509 1509 1509 1510 1508 1506 1506 1507 1508 1514 1513 1496 1484 1482 1472 1471 1476 1474 1477 1479 1479 1481 1482 1483 1485 1485 1486 1487 1486 1486 1485
1515 1515 1516 1517 1518 1520 1521 1522 1524 1525 1525 1527 1529 1525 1518 1512 1509 1508 1506 1506 1508 1508 1512 1517 1515 1513 1513 1509 1509 1512 1514 1514 1514 1514 1512 1509 1505 1501 1502 1504 1505 1505 1505 1507 1505 1504 1506 1502 1502 1506 1505 1505 1506 1505 1506 1505 1506 1508 1510 1508 1508 1509 1508 1510 1517 1519 1521 1517 1494 1479 1482 1476 1472 1476 1476 1477 1478 1478 1479 1480 1482 1484 1484 1485 1485 1485 1484 1483
1513 1514 1513 1513 1515 1517 1519 1521 1522 1523 1524 1526 1525 1520 1513 1509 1505 1505 1505 1506 1508 1508 1512 1517 1512 1507 1508 1508 1507 1510 1515 1514 1514 1514 1511 1506 1501 1496 1498 1502 1504 1504 1504 1506 1506 1506 1507 1504 1503 1507 1508 1506 1506 1507 1506 1505 1506 1506 1508 1508 1507 1511 1511 1512 1520 1521 1519 1514 1492 1474 1475 1474 1469 1471 1475 1476 1475 1476 1477 1478 1480 1481 1481 1482 1482 1482 1482 1481
1511 1512 1511 1510 1512 1515 1516 1518 1519 1521 1523 1523 1522 1516 1509 1505 1503 1504 1505 1505 1506 1509 1511 1512 1510 1506 1505 1506 1505 1507 1512 1512 1510 1511 1508 1503 1499 1495 1495 1498 1502 1504 1505 1506 1507 1506 1508 1507 1505 1508 1510 1507 1507 1508 1506 1504 1507 1508 1509 1508 1506 1509 1510 1509 1514 1514 1510 1509 1497 1481 1474 1469 1463 1462 1466 1470 1471 1474 1476 1477 1478 1478 1478 1479 1480 1480 1479 1479
1509 1510 1507 1506 1509 1511 1513 1516 1517 1519 1519 1516 1514 1510 1504 1502 1501 1502 1503 1503 1504 1506 1507 1507 1508 1507 1504 1503 1503 1504 1507 1507 1505 1506 1504 1499 1496 1495 1494 1494 1499 1505 1506 1506 1508 1507 1508 1509 1505 1507 1512 1509 1505 1504 1500 1498 1503 1507 1509 1509 1507 1507 1507 1507 1508 1507 1507 1508 1505 1497 1482 1467 1462 1462 1462 1466 1469 1471 1474 1475 1476 1476 1476 1477 1477 1477 1477 1477
1508 1507 1503 1503 1507 1508 1510 1513 1513 1514 1514 1510 1508 1504 1501 1500 1499 1499 1500 1501 1501 1501 1502 1503 1504 1504 1503 1502 1501 1501 1503 1503 1502 1502 1500 1496 1495 1495 1493 1492 1496 1502 1506 1508 1509 1507 1507 1507 1504 1504 1507 1505 1500 1497 1497 1497 1498 1501 1501 1500 1501 1503 1506 1510 1509 1505 1507 1506 1503 1501 1486 1465 1462 1465 1462 1464 1467 1468 1470 1472 1473 1473 1474 1475 1475 1475 1475 1474
1504 1503 1499 1501 1504 1505 1508 1509 1508 1509 1508 1504 1501 1499 1499 1498 1496 1496 1497 1498 1499 1498 1499 1500 1499 1500 1499 1499 1500 1499 1500 1500 1498 1498 1496 1492 1492 1492 1490 1491 1493 1496 1501 1505 1506 1505 1505 1507 1506 1500 1496 1497 1497 1496 1498 1499 1497 1498 1497 1494 1495 1498 1501 1506 1505 1502 1506 1504 1497 1500 1490 1465 1458 1463 1461 1463 1465 1465 1468 1469 1469 1470 1471 1472 1473 1472 1472 1471
1499 1498 1497 1499 1501 1502 1505 1505 1504 1504 1500 1496 1496 1495 1495 1494 1493 1493 1494 1495 1496 1497 1498 1496 1495 1496 1494 1494 1497 1497 1499 1498 1491 1490 1492 1489 1489 1490 1490 1491 1493 1494 1498 1501 1503 1504 1505 1507 1507 1502 1495 1494 1497 1498 1499 1499 1499 1498 1495 1493 1494 1492 1492 1497 1498 1499 1504 1499 1495 1504 1495 1467 1457 1461 1460 1462 1464 1464 1466 1467 1466 1468 1468 1469 1470 1469 1469 1468
1495 1496 1496 1497 1498 1500 1500 1497 1496 1496 1493 1493 1494 1492 1490 1489 1488 1489 1490 1491 1492 1494 1495 1492 1490 1491 1490 1491 1493 1493 1496 1496 1487 1484 1486 1486 1487 1490 1491 1491 1493 1493 1495 1497 1497 1500 1502 1502 1506 1511 1506 1496 1492 1495 1497 1498 1499 1496 1491 1491 1491 1489 1493 1496 1496 1502 1503 1490 1490 1501 1488 1462 1458 1462 1461 1462 1464 1463 1465 1465 1464 1465 1465 1466 1467 1466 1465 1465
1493 1494 1493 1493 1495 1495 1493 1488 1488 1489 1488 1491 1490 1486 1486 1484 1482 1484 1486 1486 1487 1489 1490 1488 1486 1487 1488 1489 1491 1490 1490 1490 1486 1482 1482 1483 1487 1491 1491 1491 1492 1492 1493 1495 1494 1495 1498 1499 1501 1506 1504 1492 1481 1481 1487 1491 1494 1491 1488 1488 1488 1489 1493 1493 1497 1504 1497 1481 1482 1486 1472 1457 1457 1461 1460 1461 1462 1462 1462 1463 1462 1462 1463 1463 1463 1463 1463 1462
1488 1487 1487 1490 1492 1491 1487 1484 1487 1485 1484 1486 1483 1478 1479 1480 1477 1479 1482 1483 1484 1485 1485 1483 1483 1485 1486 1487 1489 1488 1484 1484 1485 1483 1480 1483 1488 1491 1491 1491 1492 1492 1493 1494 1493 1494 1500 1501 1497 1495 1491 1482 1475 1477 1483 1486 1487 1487 1486 1485 1486 1488 1488 1490 1496 1494 1484 1481 1477 1467 1462 1460 1456 1456 1459 1459 1460 1460 1459 1460 1460 1459 1461 1461 1461 1461 1461 1460
1481 1476 1476 1482 1486 1486 1485 1484 1484 1481 1479 1481 1477 1471 1472 1473 1472 1475 1477 1477 1479 1480 1480 1479 1479 1482 1483 1484 1486 1483 1478 1480 1483 1481 1478 1481 1488 1492 1492 1490 1492 1492 1492 1494 1493 1495 1501 1500 1494 1491 1485 1476 1476 1481 1484 1485 1484 1484 1484 1484 1484 1485 1485 1488 1487 1476 1476 1484 1471 1452 1459 1463 1452 1453 1458 1457 1457 1458 1457 1457 1457 1458 1459 1459 1459 1460 1459 1458
1472 1466 1465 1470 1472 1474 1476 1475 1475 1477 1476 1476 1472 1466 1466 1467 1469 1472 1472 1473 1474 1475 1476 1474 1472 1474 1476 1478 1480 1477 1474 1478 1481 1477 1476 1478 1484 1491 1492 1492 1492 1491 1491 1494 1492 1494 1501 1495 1486 1488 1486 1478 1480 1484 1483 1484 1483 1480 1481 1482 1481 1481 1481 1481 1477 1471 1475 1476 1458 1448 1458 1456 1447 1451 1454 1453 1456 1456 1455 1456 1456 1456 1457 1457 1457 1457 1457 1456
1464 1463 1463 1464 1461 1460 1461 1462 1468 1472 1471 1470 1467 1460 1461 1466 1466 1465 1467 1472 1471 1468 1470 1470 1466 1467 1469 1470 1473 1471 1468 1472 1474 1470 1471 1475 1477 1483 1488 1488 1489 1490 1491 1493 1493 1495 1499 1492 1485 1487 1486 1481 1483 1483 1481 1483 1482 1478 1478 1479 1477 1476 1474 1472 1469 1469 1471 1465 1453 1453 1456 1447 1442 1448 1449 1450 1455 1454 1453 1455 1454 1455 1456 1455 1456 1456 1455 1455
1455 1455 1457 1460 1457 1454 1456 1458 1463 1464 1463 1465 1460 1453 1458 1462 1458 1457 1463 1465 1463 1463 1466 1464 1457 1458 1462 1464 1465 1461 1456 1461 1464 1460 1464 1471 1472 1477 1479 1477 1482 1489 1491 1491 1494 1495 1496 1492 1486 1489 1490 1484 1482 1483 1483 1482 1480 1477 1474 1474 1474 1473 1469 1466 1463 1462 1465 1461 1453 1455 1456 1444 1437 1443 1448 1450 1451 1451 1452 1452 1452 1453 1454 1454 1455 1454 1453 1453
1448 1450 1453 1456 1452 1450 1453 1452 1455 1459 1457 1453 1449 1448 1453 1452 1446 1452 1457 1453 1452 1455 1456 1453 1449 1453 1458 1459 1456 1451 1448 1454 1457 1455 1458 1462 1462 1465 1467 1466 1471 1482 1488 1490 1491 1491 1493 1492 1488 1491 1492 1483 1479 1484 1484 1482 1484 1480 1468 1465 1470 1468 1460 1455 1454 1454 1456 1455 1453 1456 1453 1440 1434 1440 1447 1448 1448 1449 1449 1449 1450 1452 1452 1453 1453 1452 1452 1451
1444 1448 1450 1453 1448 1444 1445 1445 1449 1452 1441 1433 1437 1442 1441 1438 1439 1449 1454 1447 1443 1444 1443 1442 1446 1451 1453 1450 1445 1443 1446 1451 1453 1454 1456 1457 1456 1457 1458 1459 1462 1469 1478 1485 1486 1486 1487 1487 1487 1491 1490 1484 1484 1487 1486 1489 1490 1470 1448 1447 1456 1456 1451 1449 1448 1447 1446 1447 1449 1448 1440 1433 1435 1443 1445 1445 1445 1446 1447 1448 1450 1450 1450 1452 1451 1450 1451 1450